Voltar ao catálogo

SL-6 R/B(2)

AtivoHEO
NORAD 22181·ROCKET BODY·🇷🇺 Russia

Lançado Oct 14, 1992 de Plesetsk Cosmodrome

Loading…

Próximas Passagens (próximas 24 horas)

TLE

AtualizadoSource: Space-Track

Época: Sep 13, 2026, 17:16 UTC

1 22181U 92067D   26256.72000563 -.00000315  00000-0  00000-0 0  9992
2 22181  64.0139 148.5589 6887158 251.3667  27.0624  2.00405297245216

Acompanhe SL-6 R/B(2) em tempo real com AllMySat

Download on the App Store